Location: Dziadowski
(50.3833°N, 20.0333°E)
Time: 02:12:55
(UTC+00:00)

Cosmos 1500 Rocket - Pass Details

Date: 18 January 2026
Orbit: 597 x 622 km, 82.5° (Epoch: 6 February)

Event Time Altitude Azimuth Distance (km) Brightness Sun altitude
Rises 03:40:50 0° 178° (S) 2,857 7.0 -26.6°
Reaches altitude 10° 03:43:03 10° 175° (S) 1,962 6.2 -26.3°
Maximum altitude 03:47:20 60° 95° (E) 706 4.0 -25.6°
Drops below altitude 10° 03:51:40 10° 17° (NNE) 1,993 6.3 -24.9°
Sets 03:53:56 0° 13° (NNE) 2,907 7.1 -24.5°
